Regional Weather Roundup
Issued by NWS

Home | Current Version | Previous Version | Graphics & Text | Print | Product List | Glossary On
Versions: 1 2 3 4 5 6 7 8 9 10 11 12 13 14 15 16 17 18 19 20 21 22 23 24 25 26 27 28 29 30 31 32 33 34 35 36 37 38 39 40 41 42 43 44 45 46 47 48 49 50
000
ASUS43 KOAX 271202
RWRNE

WEATHER ROUNDUP FOR NEBRASKA
NATIONAL WEATHER SERVICE OMAHA NE
700 AM CDT SAT MAY 27 2017

NOTES: SATELLITE DATA IS BEING USED TO AUGMENT CLOUD COVER ABOVE
       12000 FEET.
       "FAIR" INDICATES FEW OR NO CLOUDS BELOW 12,000 FEET WITH NO
       SIGNIFICANT WEATHER AND/OR OBSTRUCTIONS TO VISIBILITY.

  * THESE STATIONS DO NOT REPORT WEATHER SUCH AS RAIN...SNOW OR FOG.

NEZ001>004-019>022-054>056-271300-
NEBRASKA PANHANDLE

CITY           SKY/WX    TMP DP  RH WIND       PRES   REMARKS
SCOTTSBLUFF    CLOUDY    50  47  89 NW3       30.01S
6HR MIN TEMP:  48; 6HR MAX TEMP:  50;

ALLIANCE       CLOUDY    49  47  93 NW16      30.00R
6HR MIN TEMP:  43; 6HR MAX TEMP:  50; 6HR PCP:  0.03;

CHADRON        CLOUDY    50  48  93 SW3       30.02R
6HR MIN TEMP:  50; 6HR MAX TEMP:  51; 6HR PCP: TRACE;

GORDON         HVY RAIN  49  48  95 CALM      29.99S
6HR MIN TEMP:  49; 6HR MAX TEMP:  51; 6HR PCP:  0.05;

KIMBALL        CLOUDY    46  45  97 NW9       30.02R
SIDNEY         CLOUDY    50  48  93 N9        30.00R
6HR MIN TEMP:  50; 6HR MAX TEMP:  51;

$$

NEZ057>060-069>072-079>082-271300-
SOUTHWEST NEBRASKA

CITY           SKY/WX    TMP DP  RH WIND       PRES   REMARKS
NORTH PLATTE   CLOUDY    52  50  93 NE12      29.94S
6HR MIN TEMP:  50; 6HR MAX TEMP:  62; 6HR PCP:  0.06;

IMPERIAL       CLOUDY    51  49  92 N7        29.95R
6HR MIN TEMP:  51; 6HR MAX TEMP:  61; 6HR PCP: TRACE;

LEXINGTON      CLOUDY    55  51  88 NE13      29.91S
MCCOOK         MOCLDY    54  53  97 N8        29.90R
6HR MIN TEMP:  54; 6HR MAX TEMP:  59; 6HR PCP:  0.23;

OGALLALA       CLOUDY    53  52  94 CALM      29.97R
$$

NEZ005>010-023>029-035>040-094-271300-
NORTH CENTRAL NEBRASKA

CITY           SKY/WX    TMP DP  RH WIND       PRES   REMARKS
VALENTINE      CLOUDY    54  47  77 CALM      29.97S
6HR MIN TEMP:  52; 6HR MAX TEMP:  55; 6HR PCP:  0.03;

AINSWORTH      CLOUDY    52  50  92 N7        29.98R
BROKEN BOW     MOCLDY    53  51  93 N3        29.94R
6HR MIN TEMP:  53; 6HR MAX TEMP:  62; 6HR PCP:  0.12;

O`NEILL        CLOUDY    56  53  91 SE5       29.95F
ORD            CLOUDY    55  50  83 SE3       29.92R
6HR MIN TEMP:  55; 6HR MAX TEMP:  61; 6HR PCP:  0.07;

THEDFORD       CLOUDY    53  52  98 N8        29.98R
$$

NEZ041-046>049-061>064-073>077-083>087-271300-
SOUTH CENTRAL NEBRASKA

CITY           SKY/WX    TMP DP  RH WIND       PRES   REMARKS
GRAND ISLAND   CLOUDY    57  50  77 NW21      29.96R
6HR MIN TEMP:  55; 6HR MAX TEMP:  61; 6HR PCP:  0.09;

AURORA         DRIZZLE   56  52  84 SE23G29   29.83F
HASTINGS       CLOUDY    58  50  75 SE8       29.88F
6HR MIN TEMP:  56; 6HR MAX TEMP:  61; 6HR PCP:  0.23;

HEBRON         RAIN      58  56  92 N9        29.90F
HOLDREGE       CLOUDY    55  51  86 NE16      29.86F
KEARNEY *      CLOUDY    55  48  76 N10       29.92S
YORK           LGT RAIN  57  52  82 CALM      29.97R
$$

NEZ011>018-030>034-042>045-271300-
NORTHEAST NEBRASKA

CITY           SKY/WX    TMP DP  RH WIND       PRES   REMARKS
NORFOLK        LGT RAIN  55  50  83 NW7       29.93S
6HR MIN TEMP:  52; 6HR MAX TEMP:  57; 6HR PCP:  0.01;

ALBION         CLOUDY    57  51  79 NE3       29.93S
BLAIR          CLOUDY    60  47  62 NE6       29.88S
FREMONT        CLOUDY    60  46  61 CALM      29.89S
TEKAMAH        CLOUDY    57  51  80 NW3       29.89R
6HR MIN TEMP:  53; 6HR MAX TEMP:  57;

WAYNE          CLOUDY    56  52  84 N3        29.93R
$$

NEZ050>053-065>068-078-088>093-271300-
SOUTHEAST NEBRASKA

CITY           SKY/WX    TMP DP  RH WIND       PRES   REMARKS
LINCOLN        TSTM      59  52  77 NW9       29.90R
6HR MIN TEMP:  57; 6HR MAX TEMP:  63; 6HR PCP:  0.01;

OMAHA EPPLEY   CLOUDY    59  50  72 NW8       29.88S
6HR MIN TEMP:  55; 6HR MAX TEMP:  60;

BEATRICE       CLOUDY    59  55  85 NW9       29.93R
FALLS CITY     PTSUNNY   65  55  70 E3        29.85R
6HR MIN TEMP:  63; 6HR MAX TEMP:  68;

NEBRASKA CITY  CLOUDY    64  44  48 NE8       29.86F
PLATTSMOUTH    CLOUDY    65  45  48 NE7       29.88S
$$

NEZ044-045-051>053-067-271300-
OMAHA AREA

CITY           SKY/WX    TMP DP  RH WIND       PRES   REMARKS
OMAHA EPPLEY   CLOUDY    59  50  72 NW8       29.88S
6HR MIN TEMP:  55; 6HR MAX TEMP:  60;

BLAIR          CLOUDY    60  47  62 NE6       29.88S
FREMONT        CLOUDY    60  46  61 CALM      29.89S
MILLARD        CLOUDY    65  47  52 CALM      29.88S
OFFUTT AFB     PTSUNNY   60  48  64 NE6       29.86F
PLATTSMOUTH    CLOUDY    65  45  48 NE7       29.88S
WAHOO          FAIR      59  46  61 CALM      29.88F
$$




USA.gov is the U.S. government's official web portal to all federal, state and local government web resources and services.